FW8731 Weather Reports


Display with metric or nautical units.
time (UTC)temp
F
wind
direction
speed
MPH
gust
MPH
rain 1hr
in
rain 24hr
in
rain mn
in
humidity
%
barometer
mb
20260904090045 49 0 0.0 0.0 0.00 0.00 0.00 91 1011.9
20260904084543 49 0 0.0 0.0 0.00 0.00 0.00 91 1011.9
20260904083046 49 0 0.0 0.0 0.00 0.00 0.00 91 1012.1
20260904081543 49 0 0.0 0.0 0.00 0.00 0.00 90 1012.2
20260904080051 49 0 0.0 0.0 0.00 0.00 0.00 90 1012.1
20260904074600 49 0 0.0 0.0 0.00 0.00 0.00 90 1012.0
20260904073057 49 0 0.0 0.0 0.00 0.00 0.00 90 1012.0
20260904071621 49 0 0.0 0.0 0.00 0.00 0.00 90 1012.0
20260904070105 49 0 0.0 0.0 0.00 0.00 0.00 90 1011.9
20260904064603 49 0 0.0 0.0 0.00 0.00 0.00 90 1011.8
20260904063057 49 0 0.0 0.0 0.00 0.00 0.00 90 1011.6
20260904061551 50 0 0.0 0.0 0.00 0.00 0.00 90 1011.7
20260904060052 50 0 0.0 0.0 0.00 0.00 0.00 89 1011.8
20260904054551 50 73 0.0 2.0 0.00 0.01 0.00 89 1011.9
20260904053055 51 0 0.0 2.0 0.00 0.01 0.00 88 1012.0
20260904051554 51 0 0.0 2.0 0.00 0.01 0.00 87 1012.1
20260904050054 51 0 0.0 3.0 0.00 0.01 0.00 86 1012.1
20260904044551 52 110 0.0 1.0 0.00 0.01 0.00 84 1012.1
20260904043047 53 0 0.0 2.0 0.00 0.01 0.00 84 1012.0
20260904041544 53 0 0.0 3.0 0.00 0.01 0.00 83 1012.0
20260904040043 54 0 0.0 3.0 0.00 0.01 0.00 81 1012.0
20260904034551 55 0 1.0 4.0 0.00 0.02 0.00 79 1011.8
20260904033056 56 0 0.0 1.0 0.00 0.02 0.00 78 1011.7
20260904031605 57 0 0.0 1.0 0.00 0.02 0.00 75 1011.5
20260904030042 58 0 0.0 2.0 0.00 0.02 0.00 73 1011.4
20260904024552 59 311 1.0 7.0 0.00 0.04 0.00 68 1011.6
20260904023048 59 263 1.0 4.0 0.00 0.04 0.00 68 1011.5
20260904021550 60 299 2.0 7.0 0.00 0.04 0.00 65 1011.4
20260904020044 61 175 2.0 7.0 0.00 0.04 0.00 62 1011.4
20260904014557 62 90 0.0 3.0 0.00 0.16 0.00 64 1011.3
20260904013049 62 211 0.0 5.0 0.00 0.16 0.00 61 1011.3
20260904011555 62 192 1.0 12.0 0.00 0.16 0.00 59 1011.3
20260904010054 63 157 1.0 4.0 0.00 0.16 0.00 59 1011.0
20260904004547 64 113 2.0 6.0 0.00 0.28 0.00 56 1010.8
20260904003044 64 198 1.0 9.0 0.00 0.28 0.00 59 1010.9
20260904001552 64 285 3.0 8.0 0.00 0.28 0.00 57 1011.0
20260903234546 63 241 2.0 10.0 0.00 0.40 0.00 58 1011.1
20260903233047 63 208 4.0 11.0 0.00 0.40 0.00 57 1011.2
20260903231556 64 351 3.0 9.0 0.00 0.40 0.00 59 1011.2
20260903230051 65 210 3.0 9.0 0.00 0.40 0.00 57 1011.4
20260903224546 63 155 1.0 4.0 0.00 0.54 0.00 65 1011.6
20260903223042 62 228 0.0 7.0 0.00 0.54 0.00 66 1011.8
20260903221552 63 192 2.0 10.0 0.00 0.54 0.00 64 1011.9
20260903220046 63 0 2.0 6.0 0.00 0.54 0.00 63 1011.5
20260903214541 63 294 1.0 3.0 0.00 0.61 0.00 63 1011.5
20260903213055 64 0 1.0 6.0 0.00 0.61 0.00 69 1011.5
20260903211551 63 263 0.0 5.0 0.00 0.61 0.00 68 1011.6
20260903210045 60 226 1.0 4.0 0.00 0.61 0.00 80 1011.7
20260903204543 58 0 0.0 3.0 0.00 0.67 0.00 86 1011.9
20260903203055 58 234 0.0 2.0 0.00 0.67 0.00 86 1012.1
20260903201550 58 0 0.0 2.0 0.00 0.67 0.00 89 1012.2
20260903200050 58 298 1.0 3.0 0.00 0.67 0.00 87 1012.3
20260903194545 58 0 0.0 1.0 0.00 0.70 0.00 89 1012.4
20260903193052 57 0 0.0 0.0 0.00 0.70 0.00 89 1012.4
20260903191552 57 298 1.0 3.0 0.00 0.70 0.00 88 1012.7
20260903190044 57 0 0.0 2.0 0.00 0.70 0.00 89 1012.7
20260903184551 57 0 0.0 2.0 0.00 0.73 0.00 89 1012.7
20260903183049 57 0 0.0 1.0 0.00 0.73 0.00 90 1012.7
20260903181545 57 0 0.0 2.0 0.00 0.73 0.00 90 1012.6
20260903180112 56 0 0.0 3.0 0.00 0.73 0.00 91 1012.6
20260903174550 56 0 0.0 1.0 0.00 0.74 0.00 91 1012.7
20260903173048 56 0 0.0 1.0 0.00 0.74 0.00 92 1012.5
20260903171550 55 337 0.0 3.0 0.00 0.74 0.00 92 1012.5
20260903170052 55 0 0.0 2.0 0.00 0.74 0.00 91 1012.4
20260903164558 54 0 0.0 2.0 0.00 0.75 0.00 92 1012.7
20260903163053 54 279 0.0 3.0 0.00 0.75 0.00 93 1013.0
20260903161552 54 0 0.0 3.0 0.00 0.75 0.00 94 1013.2
20260903160054 54 290 0.0 3.0 0.00 0.75 0.00 94 1013.3
20260903154550 53 273 0.0 3.0 0.00 0.75 0.00 94 1013.5
20260903153048 53 272 0.0 1.0 0.00 0.75 0.00 94 1013.5
20260903151547 52 0 0.0 0.0 0.00 0.75 0.00 94 1013.5
20260903150044 52 0 0.0 2.0 0.00 0.75 0.00 94 1013.4
20260903144545 52 0 0.0 2.0 0.00 0.75 0.00 94 1013.3
20260903143049 52 0 0.0 2.0 0.00 0.75 0.00 94 1013.4
20260903141544 52 0 0.0 1.0 0.00 0.75 0.00 94 1013.2
20260903140043 52 0 0.0 2.0 0.00 0.75 0.00 94 1013.1
20260903134554 52 0 0.0 0.0 0.00 0.75 0.00 94 1013.0
20260903133050 52 0 0.0 2.0 0.00 0.75 0.00 94 1012.9
20260903131545 52 0 0.0 0.0 0.00 0.75 0.00 94 1012.9
20260903130111 51 0 0.0 0.0 0.00 0.75 0.00 94 1013.0
20260903124543 51 0 0.0 0.0 0.00 0.75 0.00 94 1012.9
20260903123054 51 0 0.0 0.0 0.00 0.75 0.00 94 1013.0
20260903121553 51 0 0.0 0.0 0.00 0.75 0.00 94 1013.1
20260903120045 51 0 0.0 0.0 0.00 0.75 0.00 94 1013.2
20260903114553 51 0 0.0 0.0 0.00 0.75 0.00 94 1013.1
20260903113052 51 0 0.0 0.0 0.00 0.75 0.00 94 1013.1
20260903111605 51 0 0.0 1.0 0.00 0.75 0.00 94 1013.3
20260903110112 52 0 0.0 0.0 0.00 0.75 0.00 93 1013.4
20260903104556 52 0 0.0 1.0 0.00 0.75 0.00 93 1013.5
20260903103051 52 0 0.0 1.0 0.00 0.75 0.00 93 1013.5
20260903101552 53 0 0.0 2.0 0.00 0.75 0.00 93 1013.5
20260903100056 53 0 0.0 1.0 0.00 0.75 0.00 93 1013.5
20260903094552 53 0 0.0 1.0 0.00 0.75 0.00 94 1013.5
20260903093054 53 0 0.0 1.0 0.00 0.75 0.00 94 1013.5
20260903091550 53 0 0.0 0.0 0.00 0.75 0.00 94 1013.6